This is the latest recevied weather packets stored in our database for station/object KF4WSW-13. If no packets are shown the sender has not sent any weather packets the latest 10 day(s).
| Time | Temp. | Humidity | Pressure | Rain* | Wind** | Luminosity | Snow |
|---|---|---|---|---|---|---|---|
| 1777846759 | 23.89° C | 66% | 1013.4 hPa | 0 mm | - | 73 W/m² | - |
| 1777846457 | 23.89° C | 65% | 1013.7 hPa | 0 mm | - | 128 W/m² | - |
| 1777846153 | 23.89° C | 67% | 1013.5 hPa | 0 mm | - | 92 W/m² | - |
| 1777845850 | 23.89° C | 68% | 1013.6 hPa | 0 mm | - | 112 W/m² | - |
| 1777845547 | 23.89° C | 65% | 1013.6 hPa | 0 mm | - | 94 W/m² | - |
| 1777845244 | 23.89° C | 65% | 1013.6 hPa | 0 mm | - | 110 W/m² | - |
| 1777844942 | 23.89° C | 67% | 1013.7 hPa | 0 mm | - | 124 W/m² | - |
| 1777844639 | 23.89° C | 67% | 1013.6 hPa | 0 mm | - | 168 W/m² | - |
| 1777844336 | 24.44° C | 64% | 1013.7 hPa | 0 mm | - | 103 W/m² | - |
| 1777844034 | 23.89° C | 63% | 1013.5 hPa | 0 mm | - | 168 W/m² | - |
| 1777843730 | 23.89° C | 66% | 1013.7 hPa | 0 mm | - | 185 W/m² | - |
| 1777843428 | 23.89° C | 65% | 1013.8 hPa | 0 mm | - | 185 W/m² | - |
| 1777843125 | 23.89° C | 66% | 1013.5 hPa | 0 mm | - | 141 W/m² | - |
| 1777842822 | 23.89° C | 64% | 1013.8 hPa | 0 mm | - | 152 W/m² | - |
| 1777842517 | 23.89° C | 65% | 1013.9 hPa | 0 mm | - | 132 W/m² | - |
| 1777842215 | 23.89° C | 63% | 1013.5 hPa | 0 mm | - | 224 W/m² | - |
| 1777841909 | 23.89° C | 66% | 1013.9 hPa | 0 mm | - | 257 W/m² | - |
| 1777841606 | 23.89° C | 65% | 1013.8 hPa | 0 mm | - | 305 W/m² | - |
| 1777841303 | 23.89° C | 66% | 1013.6 hPa | 0 mm | - | 271 W/m² | - |
| 1777841001 | 23.89° C | 64% | 1013.6 hPa | 0 mm | - | 472 W/m² | - |
| 1777840698 | 24.44° C | 63% | 1013.7 hPa | 0 mm | - | 495 W/m² | - |
| 1777840395 | 23.89° C | 65% | 1013.5 hPa | 0 mm | - | 492 W/m² | - |
| 1777840092 | 23.89° C | 64% | 1013.7 hPa | 0 mm | - | 502 W/m² | - |
| 1777839790 | 23.89° C | 65% | 1013.7 hPa | 0 mm | - | 517 W/m² | - |
| 1777839488 | 23.89° C | 64% | 1014 hPa | 0 mm | - | 526 W/m² | - |
* Rain latest hour (hover to see other rain measurements)
** Current wind speed in m/s (hover to see current wind gust speed)